Flag for U.S.A. Weather past 2 weeks in Aliso Viejo, California, U.S.A.

Now
64 °F

Partly sunny.


Feels Like: 64 °F
Forecast: 51 / 64 °F
Wind: 5 mph from West

Location: John Wayne Airport-Orange County Airport

Current Time: Dec 18, 2014 at 2:32:45 PM

Latest Report: Dec 18, 2014 at 12:53 PM


Visibility: 10 mi

Pressure: 30.15 "Hg

Humidity: 49%

Dew point: 44 °F

Location of Aliso ViejoLocation

Historic Weather in Aliso Viejo — Graph

°F

Aliso Viejo temperature yesterday

Maximum temperature yesterday: 65 °F (at 12:53 PM)
Minimum temperature yesterday: 55 °F (at 6:53 AM)
Average temperature yesterday: 60 °F

Past Weeks' High & Low Weather Summary

 TemperatureHumidityPressure
High78 °F (Dec 8, 12:53 PM)88% (Dec 12, 6:00 AM)30.21 "Hg (Dec 12, 6:00 AM)
Low50 °F (Dec 14, 5:53 AM)39% (Dec 7, 2:53 PM)29.85 "Hg (Dec 12, 3:53 AM)
Average63 °F69%30.04 "Hg
* Reported Dec 3 11:53 AM — Dec 18 11:53 AM, Aliso Viejo, Weather by CustomWeather, © 2014

Note: Actual official high and low records may vary slightly from our data, if they occured in-between our weather recording intervals... More about our weather records

Advertising

Aliso Viejo weather history for previous 24 hours

 ConditionsComfort  
Time TempWeatherWind HumidityBarometerVisibility
11:53 AM
Dec 18
65 °FPartly sunny.7 mph44%30.16 "Hg10 mi
10:53 AM64 °FScattered clouds.No wind50%30.19 "Hg10 mi
9:53 AM62 °FPartly sunny.No wind54%30.20 "Hg10 mi
8:53 AM61 °FScattered clouds.No wind60%30.19 "Hg10 mi
7:53 AM57 °FScattered clouds.No wind69%30.16 "Hg10 mi
6:53 AM53 °FScattered clouds.No wind77%30.15 "Hg10 mi
5:53 AM52 °FPassing clouds.No wind80%30.13 "Hg10 mi
4:53 AM53 °FMostly cloudy.No wind77%30.11 "Hg10 mi
3:53 AM54 °FOvercast.No wind74%30.11 "Hg10 mi
2:53 AM53 °FPassing clouds.No wind74%30.11 "Hg10 mi
1:53 AM53 °FClear.No wind74%30.11 "Hg10 mi
12:53 AM54 °FClear.No wind72%30.10 "Hg10 mi
11:53 PM
Dec 17
56 °FClear.No wind70%30.11 "Hg10 mi
10:53 PM57 °FPassing clouds.6 mph67%30.11 "Hg10 mi
9:53 PM58 °FPassing clouds.5 mph65%30.11 "Hg10 mi
8:53 PM59 °FPassing clouds.No wind62%30.10 "Hg10 mi
7:53 PM60 °FPassing clouds.5 mph60%30.09 "Hg10 mi
6:53 PM63 °FPassing clouds.No wind50%30.08 "Hg10 mi
5:53 PM63 °FOvercast.No wind52%30.08 "Hg10 mi
4:53 PM63 °FMostly cloudy.5 mph52%30.07 "Hg10 mi
3:53 PM63 °FBroken clouds.9 mph52%30.06 "Hg10 mi
2:53 PM64 °FBroken clouds.8 mph50%30.05 "Hg10 mi
Weather by CustomWeather, © 2014

See weather overviewHow to use our weather pages